Location: Unspecified
(40.7945°N, 0.0000°E)
Time: 07:44:12
(UTC+00:00)

AIST 2D - Pass Details

Date: 21 July 2019
Orbit: 457 x 471 km, 97.2° (Epoch: 25 August)

Event Time Altitude Azimuth Distance (km) Brightness Sun altitude
Rises 22:10:43 0° 25° (NNE) 2,514 ? -23.2°
Reaches altitude 10° 22:13:03 10° 39° (NE) 1,634 ? -23.4°
Enters shadow 22:13:59 15° 51° (NE) 1,332 ? -23.5°
